CAPE
407 389 388 217 180 274 242 313 342 395 260 65 0 0 0 0 46 92 163 379 189 335 640 299 817 705 26 0 0 400 668 60 389 445 133 95 11 0 1 79 413 120 126
146 331 348 363 383 372 274 273 91 218 154 43 0 0 0 115 114 50 0 292 575 566 717 44 451 1083 514 670 551 795 607 168 684 384 168 59 0 113 235 493 474 138 4
147 143 250 395 457 434 439 575 326 171 155 54 16 0 17 184 41 385 93 3 678 812 1135 1130 963 516 850 568 284 169 502 271 355 792 646 329 77 127 181 291 298 30 53
213 196 113 365 568 599 635 574 600 406 221 94 35 4 16 55 13 81 578 565 833 1345 468 774 1219 592 766 708 151 876 1043 656 812 892 963 619 340 83 76 165 119 3 4
264 239 121 165 275 499 538 677 513 361 189 232 15 8 27 65 45 66 215 83 157 1046 1182 1376 1062 879 709 888 957 1060 769 418 586 686 368 238 6 104 305 86 120 191 72
304 375 241 183 345 427 383 442 513 409 248 142 171 104 152 6 221 81 13 167 47 433 688 1051 1396 944 952 1088 1095 861 1168 1052 708 676 1031 647 474 251 328 332 99 52 19
395 446 384 285 521 586 638 562 684 579 591 476 152 345 224 6 272 186 12 55 48 775 668 894 1658 1173 1010 959 1066 983 1034 547 408 344 179 148 142 266 190 248 281 67 64
421 524 519 411 540 708 846 857 743 768 779 656 159 426 495 141 397 286 21 265 655 288 843 1272 1351 1416 1147 1006 981 934 877 778 1308 644 614 599 187 204 233 361 540 463 247
305 552 606 519 545 821 932 1065 855 789 786 829 482 443 489 720 355 258 184 22 11 948 754 825 1326 1485 1291 1400 1374 1155 857 1170 1353 1028 575 736 695 632 829 871 601 415 272
2 493 693 693 635 818 1033 1262 1048 928 782 825 1067 649 751 594 946 414 187 922 1072 1015 688 709 1185 1384 1364 989 1329 1369 1045 966 1088 990 726 1124 1202 1072 951 938 872 574 386
4 280 838 924 756 891 1141 1374 1259 1156 1022 827 966 986 791 700 880 1306 646 646 1114 641 615 746 1054 1166 1349 1312 1354 1434 984 747 854 1368 919 854 1088 1155 937 663 818 896 748
0 0 761 1091 920 1128 1275 1486 1475 1419 1246 954 1080 1165 1171 983 958 877 1161 1207 510 1033 1130 1012 762 882 1465 1403 1330 1451 1209 893 644 876 933 686 832 903 1026 1099 1122 833 692
0 20 887 1252 1138 1247 1428 1727 1624 1663 1584 1230 1150 1210 1337 1067 921 718 748 944 1275 638 546 599 766 701 611 822 1042 1220 1206 921 848 871 1122 1287 1266 1182 1296 1202 995 933 869
17 30 1006 1389 1303 1418 1415 1745 1810 1872 1870 1651 1371 1205 1172 1286 1142 1039 956 561 677 1072 747 539 569 1117 1549 1356 1476 1491 1483 1502 1451 1376 1393 1314 1426 1359 1165 1078 1066 1058 951
302 437 1207 1694 1500 1351 1575 1559 1848 1919 1974 1902 1730 1568 1299 1391 1282 1217 1368 1219 981 866 999 959 1066 1198 1410 1517 1568 1663 1515 1587 1790 1788 1826 1767 1521 1358 1182 1055 1335 1350 1159
354 864 1808 2154 1788 1601 1720 1734 1707 1940 2137 2055 1988 1886 1891 1634 1694 1525 1475 1831 1549 1626 1685 1551 1500 1540 1910 1405 1259 1312 1290 932 917 1172 1242 1385 1314 1396 1528 1260 1078 1151 1104
1215 1679 1859 2310 2262 1891 1711 2095 1906 2009 2116 2117 2230 2147 2194 2135 2019 2172 2084 2137 2201 1982 2046 1984 1962 2055 1790 797 786 601 33 29 404 779 990 1077 1124 878 650 320 173 125 114
1127 1779 2505 2599 2456 2606 2248 2056 2590 2290 2189 2371 2277 2517 2445 2356 2376 2442 2477 2412 2551 2469 2293 2280 2314 1958 937 258 193 67 0 1 0 0 0 0 0 0 0 0 0 0 0
1266 1453 2479 2780 2928 2778 2906 2735 2758 2897 2631 2553 2801 2779 2749 2781 2613 2593 2637 2804 2827 2806 2739 2602 1995 1255 286 12 1 0 0 0 0 0 0 0 0 0 0 0 0 0 0
1484 1664 2010 2676 3244 3010 3108 3060 2961 2880 3386 2980 3228 3416 3180 2906 2872 2946 2966 2936 2615 2367 2141 1304 1069 437 154 0 0 0 0 0 0 0 0 0 0 0 0 0 0 0 0
1390 1404 1885 2962 3227 3512 3578 3197 3296 3200 3208 3636 3601 3627 3553 3407 3407 3088 2876 2636 2345 1838 1228 758 196 17 0 0 0 0 0 0 0 0 0 0 0 0 0 0 0 0 0
1054 1301 1838 3042 3123 3062 3350 3604 3399 3284 3245 3218 3054 2848 2778 2510 2244 2139 1796 1803 1351 596 287 31 0 0 0 0 0 0 0 0 0 0 0 0 0 0 0 0 0 0 0
729 1018 1486 2743 3362 3242 3452 3078 2807 2698 2503 2436 2312 2117 1861 1621 1422 1430 1029 689 212 65 0 0 0 0 0 0 0 0 0 0 0 0 0 0 0 0 0 0 0 0 0
371 550 1048 2234 2847 2995 3154 2773 2277 2071 1961 1782 1506 1228 1271 938 559 276 84 0 0 0 0 0 0 0 0 0 0 0 0 0 0 0 0 0 0 0 0 0 0 0 0
66 245 703 1391 2609 2488 2234 1945 1578 1332 1193 938 855 656 432 301 24 0 0 0 0 0 0 0 0 0 0 0 0 0 0 0 0 0 1 1 0 0 0 1 0 0 0
22 39 300 940 971 580 1475 1468 1194 1043 890 585 360 172 38 0 0 0 0 0 0 0 0 0 0 0 0 0 0 0 0 0 0 0 1 0 1 0 1 2 1 0 0
CIN
-130 -86 -52 -94 -110 -73 -74 -67 -74 -63 -82 -102 0 0 -18 0 -46 -73 -43 -22 -24 -30 -17 -31 -25 -40 -71 0 0 -43 -57 -104 -80 -55 -65 -76 -127 -1 -36 -92 -147 -168 -185
-137 -126 -106 -101 -111 -90 -78 -79 -103 -100 -89 -125 0 0 0 -39 -62 -55 0 -22 -20 -18 -15 -29 -29 -26 -45 -37 -45 -49 -60 -126 -55 -42 -67 -57 0 -47 -55 -111 -120 -133 -74
-118 -141 -151 -161 -145 -139 -104 -72 -103 -119 -95 -112 -75 0 -104 -15 -76 -14 -53 -48 -16 -8 -10 -12 -24 -34 -36 -38 -59 -48 -33 -46 -35 -36 -21 -31 -30 -60 -48 -87 -86 -155 -191
-118 -131 -180 -235 -220 -181 -117 -101 -76 -88 -101 -100 -122 -150 -106 -52 -67 -32 -16 -19 -10 -10 -15 -13 -17 -32 -37 -34 -25 -39 -26 -39 -28 -35 -30 -32 -19 -21 -26 -37 -92 -185 -113
-142 -132 -176 -208 -246 -226 -193 -122 -119 -104 -112 -81 -150 -148 -92 -66 -50 -51 -26 -42 -36 -15 -20 -13 -14 -28 -29 -32 -28 -22 -21 -29 -43 -36 -52 -41 -32 -31 -13 -28 -23 -31 -176
-124 -122 -151 -187 -245 -247 -219 -194 -168 -132 -132 -131 -96 -90 -69 -93 -29 -46 -89 -44 -77 -40 -29 -23 -21 -32 -33 -25 -19 -16 -8 -19 -29 -38 -41 -36 -29 -33 -29 -23 -13 -18 -23
-112 -125 -162 -180 -234 -272 -256 -227 -176 -148 -116 -93 -138 -70 -65 -122 -33 -39 -122 -74 -82 -39 -40 -32 -14 -24 -34 -32 -29 -26 -21 -32 -38 -54 -68 -66 -55 -48 -40 -33 -22 -20 -12
-54 -117 -133 -176 -235 -272 -267 -241 -206 -144 -132 -119 -168 -80 -40 -75 -38 -44 -103 -50 -35 -49 -34 -26 -20 -27 -29 -35 -35 -36 -33 -25 -11 -33 -35 -50 -56 -61 -47 -31 -22 -7 -15
-44 -81 -122 -176 -224 -283 -293 -264 -224 -165 -145 -125 -132 -99 -58 -22 -48 -55 -50 -78 -82 -30 -18 -17 -24 -22 -22 -24 -17 -23 -31 -18 -16 -25 -46 -36 -50 -44 -38 -33 -34 -15 -17
-5 -74 -101 -166 -232 -265 -293 -276 -244 -189 -165 -138 -87 -104 -64 -55 -28 -44 -63 -26 -16 -12 -22 -32 -34 -16 -17 -28 -18 -20 -39 -34 -26 -30 -34 -20 -25 -34 -46 -47 -36 -41 -31
-7 -60 -100 -150 -213 -261 -280 -282 -232 -203 -174 -162 -128 -93 -93 -81 -49 -30 -49 -45 -20 -23 -28 -26 -21 -27 -14 -12 -12 -15 -31 -47 -42 -23 -32 -33 -27 -23 -34 -46 -44 -33 -36
0 -1 -67 -130 -186 -241 -255 -264 -238 -203 -188 -175 -152 -120 -93 -81 -68 -74 -45 -38 -59 -39 -39 -40 -39 -26 -12 -11 -14 -16 -25 -39 -51 -50 -46 -60 -42 -40 -31 -31 -38 -48 -44
0 -15 -79 -106 -184 -212 -226 -236 -216 -205 -183 -171 -161 -133 -112 -127 -131 -138 -113 -84 -53 -78 -77 -76 -69 -68 -57 -37 -26 -21 -20 -30 -35 -36 -26 -24 -23 -34 -31 -31 -35 -42 -39
-39 -73 -59 -86 -152 -183 -197 -185 -197 -194 -183 -162 -157 -157 -158 -150 -141 -141 -130 -153 -127 -83 -105 -113 -116 -75 -43 -38 -29 -21 -19 -15 -14 -23 -16 -17 -12 -12 -20 -30 -32 -33 -38
-36 -35 -35 -82 -138 -158 -164 -174 -166 -178 -176 -156 -150 -160 -173 -145 -143 -144 -133 -123 -122 -128 -109 -98 -91 -79 -46 -24 -18 -14 -14 -10 -4 -9 -7 -8 -15 -14 -18 -19 -18 -11 -11
-31 -40 -32 -61 -103 -131 -131 -143 -159 -170 -160 -144 -144 -145 -149 -149 -143 -132 -129 -94 -101 -88 -72 -74 -72 -44 -8 -44 -66 -52 -46 -70 -54 -25 -27 -24 -23 -21 -12 -10 -15 -14 -8
-59 -29 -36 -55 -77 -117 -116 -104 -132 -145 -140 -143 -138 -146 -135 -133 -130 -104 -89 -72 -66 -69 -58 -56 -51 -35 -23 -92 -90 -97 -141 -283 -171 -85 -55 -51 -34 -32 -49 -76 -87 -45 -43
-90 -68 -35 -42 -70 -78 -96 -98 -87 -102 -116 -109 -118 -114 -114 -108 -99 -71 -55 -47 -36 -33 -38 -27 -18 -20 -86 -227 -211 -254 0 -67 -60 0 0 0 0 0 0 0 0 0 0
-85 -73 -66 -28 -56 -77 -74 -66 -67 -62 -81 -89 -79 -85 -84 -68 -63 -51 -37 -23 -9 -9 -11 -11 -12 -55 -208 -374 -26 0 0 0 0 0 0 0 0 0 0 0 0 0 0
-94 -84 -62 -58 -45 -55 -67 -73 -71 -66 -36 -54 -38 -33 -34 -37 -38 -23 -22 -20 -10 -7 -11 -54 -44 -112 -232 0 0 0 0 0 0 0 0 0 0 0 0 0 0 0 0
-99 -114 -67 -29 -36 -30 -33 -52 -50 -61 -73 -42 -30 -26 -27 -20 -19 -29 -33 -32 -29 -36 -90 -124 -201 -308 0 0 0 0 0 0 0 0 0 0 0 0 0 0 0 0 0
-103 -128 -48 -21 -18 -31 -24 -22 -68 -153 -131 -107 -109 -133 -119 -126 -140 -120 -143 -96 -108 -185 -208 -207 0 0 0 0 0 0 0 0 0 0 0 0 0 0 0 0 0 0 0
-103 -122 -95 -26 -20 -24 -29 -78 -168 -197 -215 -204 -201 -221 -235 -245 -248 -198 -221 -231 -301 -285 -36 0 0 0 0 0 0 0 0 0 0 0 0 0 0 0 0 0 0 0 0
-105 -134 -110 -31 -11 -33 -57 -66 -168 -228 -245 -270 -296 -335 -302 -340 -401 -446 -396 0 0 0 0 0 0 0 0 0 0 0 0 0 0 0 0 0 0 0 0 0 0 0 0
-115 -113 -111 -82 -21 -54 -101 -173 -219 -243 -292 -337 -377 -416 -455 -461 -481 0 0 0 0 0 0 0 0 0 0 0 0 0 0 0 0 0 0 0 0 0 0 0 0 0 0
-103 -95 -93 -59 -38 -113 -35 -125 -216 -263 -300 -348 -435 -489 -564 0 0 0 0 0 0 0 0 0 0 0 0 0 0 0 0 0 0 0 0 0 0 0 0 0 0 0 0
Wind_Speed
18 21 22 20 20 20 17 19 16 18 16 19 22 23 30 28 28 28 28 25 24 26 17 19 21 21 22 20 18 17 19 18 17 14 10 15 16 11 17 21 17 8 8
16 20 21 20 19 19 19 18 17 16 18 20 24 26 29 28 25 26 25 27 25 25 13 19 20 16 18 18 16 16 17 14 13 11 18 19 9 14 15 20 19 14 14
17 18 17 19 19 19 19 19 18 18 18 19 23 28 30 29 28 24 22 27 26 20 16 16 18 16 14 17 18 16 17 18 18 9 18 18 19 13 16 18 17 16 15
18 18 18 19 19 20 19 18 17 17 16 17 20 23 29 30 31 23 9 14 14 16 17 20 18 17 13 16 19 16 16 15 19 19 19 19 16 18 19 15 16 14 13
18 19 19 19 18 18 18 17 17 16 15 16 20 23 23 29 32 2 21 29 26 18 19 20 13 17 19 20 20 19 19 18 20 21 21 21 19 18 21 22 21 22 11
19 20 19 19 18 19 17 17 17 18 15 16 20 23 24 24 28 29 24 29 26 25 23 22 14 10 13 19 20 21 17 19 21 21 22 20 19 23 22 23 22 21 22
18 20 19 20 18 18 18 17 16 16 16 17 22 24 24 23 20 19 10 23 26 23 30 23 8 4 12 17 18 18 17 20 19 17 20 22 21 17 20 22 25 22 21
13 20 20 19 16 18 17 17 18 15 16 17 20 24 25 23 23 14 28 30 6 22 15 14 12 2 10 18 17 17 20 20 17 16 19 23 23 21 18 18 22 24 19
13 15 18 18 15 17 18 16 16 15 15 17 16 19 22 22 25 25 26 31 31 30 18 26 11 4 8 18 15 18 21 22 19 18 21 21 24 25 21 20 20 17 19
9 12 15 15 14 16 18 16 16 16 16 15 15 17 19 24 25 29 29 26 27 17 19 21 21 8 13 15 16 19 19 22 22 20 23 23 22 22 23 24 23 19 19
9 10 12 11 13 14 16 16 16 15 16 15 17 16 19 22 28 27 28 29 26 32 15 10 14 8 12 8 8 9 13 17 26 26 24 27 23 22 22 24 22 24 22
7 6 7 9 12 14 14 14 14 14 17 17 16 17 17 20 22 26 23 13 17 9 24 19 12 10 12 11 12 10 12 10 12 14 7 13 22 22 20 21 24 26 27
4 7 4 7 12 12 13 13 14 15 16 16 15 18 17 18 19 21 21 15 8 13 8 14 16 11 8 6 10 14 12 8 6 4 5 5 5 6 14 17 19 25 27
6 9 4 7 11 10 13 12 14 15 16 17 16 17 18 14 17 16 17 16 13 7 7 6 5 4 4 5 8 12 15 8 5 6 7 15 6 9 14 20 17 17 23
8 9 5 7 10 10 11 13 16 16 17 16 16 18 21 18 16 14 14 14 10 10 6 5 4 3 5 6 8 10 12 10 6 6 7 9 13 11 14 15 16 17 19
10 9 6 7 9 12 10 14 14 14 15 15 17 17 14 14 13 13 12 11 12 7 5 5 5 5 9 10 11 14 19 26 32 21 12 12 12 16 19 23 19 15 16
16 13 6 1 4 9 11 11 14 11 12 15 15 16 14 14 14 10 10 8 8 7 6 6 6 6 9 8 12 17 22 24 30 30 28 29 27 30 31 32 32 27 27
20 20 13 5 3 5 8 9 9 12 13 11 12 11 11 11 9 9 11 11 8 9 9 9 9 9 12 11 16 19 23 27 32 32 33 34 38 38 36 32 30 30 30
21 21 21 13 5 5 6 7 9 8 9 10 9 8 8 7 8 9 10 9 10 11 12 12 13 14 12 14 14 18 22 28 30 31 33 37 38 38 36 34 33 28 27
21 22 25 23 12 7 7 8 8 9 9 9 8 7 7 8 9 9 10 11 10 11 14 22 28 21 13 16 14 19 24 29 33 33 36 37 36 31 34 36 35 36 35
24 26 24 25 12 11 10 10 10 10 10 9 9 7 7 6 6 8 11 13 14 16 18 14 10 9 7 8 14 19 24 29 34 34 34 33 33 31 32 31 31 31 34
27 27 24 23 16 16 13 11 11 10 9 8 7 8 7 8 10 10 14 14 15 16 15 13 11 10 10 12 13 20 25 29 33 35 34 33 32 33 31 28 25 26 28
29 29 29 24 17 16 13 12 11 10 8 7 7 6 5 7 8 9 11 12 16 15 15 16 16 14 15 14 18 22 27 29 32 33 33 34 31 29 27 25 24 25 24
32 33 34 31 25 19 17 15 13 11 8 6 5 4 5 6 9 10 10 11 14 17 15 17 11 12 15 18 19 21 23 28 30 31 31 28 27 27 27 29 27 24 21
36 35 33 35 26 22 20 16 15 15 13 7 4 3 5 6 8 10 11 12 13 12 13 12 13 12 14 14 15 19 24 27 29 28 26 26 26 27 28 29 26 24 20
41 39 34 32 31 28 23 18 15 13 11 10 6 5 5 5 6 7 10 13 12 11 12 12 10 10 14 12 15 19 23 26 27 26 26 26 25 26 27 28 26 25 23
Wind_Direction
140 141 144 135 136 138 133 140 130 140 136 141 149 150 178 172 196 200 211 230 238 225 264 263 251 256 243 264 286 306 314 295 304 271 211 275 271 213 12 6 8 288 296
120 141 142 135 133 138 142 141 141 138 146 150 160 164 173 177 168 169 163 224 235 234 277 263 262 306 272 288 302 324 317 72 241 220 316 323 280 293 296 33 36 166 77
136 136 127 136 136 140 144 144 145 147 148 153 159 173 192 202 184 171 161 194 222 252 268 278 279 292 307 291 292 333 311 297 315 9 20 16 359 253 323 66 72 111 88
145 141 140 140 142 146 146 144 143 146 148 152 160 165 177 185 198 240 121 150 274 277 274 267 282 286 329 304 287 332 331 355 302 304 316 322 23 7 320 305 47 73 73
152 151 153 151 146 142 142 141 145 149 149 150 163 168 169 184 201 220 255 211 243 267 270 268 303 295 289 285 289 302 318 316 314 307 314 324 330 346 316 304 291 328 98
158 158 155 151 149 147 144 141 143 150 150 153 162 167 171 172 187 189 250 226 241 250 263 265 296 322 309 290 293 300 325 322 316 313 306 326 340 310 328 326 336 348 312
157 156 154 154 148 149 148 146 144 146 148 152 163 168 169 168 166 168 161 256 194 258 220 266 329 18 315 297 305 312 324 314 321 331 318 314 320 342 334 334 322 336 345
159 163 161 158 151 152 151 149 150 144 148 151 157 164 168 164 170 156 179 199 283 180 285 294 301 1 319 301 304 312 309 315 330 331 328 310 313 317 334 345 338 333 342
164 164 163 160 156 155 155 152 148 149 148 152 153 159 164 166 172 172 184 203 208 225 173 260 170 155 319 302 311 309 303 302 317 325 320 320 312 304 321 332 339 348 345
149 155 163 164 164 161 156 155 153 151 152 153 155 160 163 170 172 184 191 181 220 272 269 272 277 305 304 305 310 306 310 306 310 318 316 318 322 320 318 321 324 337 337
102 131 157 162 164 162 157 157 157 151 150 152 158 160 167 171 182 183 189 197 249 226 286 302 303 309 306 316 323 324 322 317 299 303 312 309 318 323 325 322 325 321 322
87 72 125 166 167 165 162 161 158 156 157 156 157 162 162 168 175 186 185 178 184 278 271 284 300 306 310 312 317 318 318 321 324 326 330 328 321 323 328 330 324 319 315
59 20 60 159 165 166 163 160 160 159 156 154 157 163 163 168 174 179 185 180 183 189 206 289 294 300 300 287 308 314 316 313 305 260 298 256 255 265 329 330 331 322 316
356 351 23 151 163 167 164 158 159 158 157 158 158 163 167 165 168 170 174 179 184 189 194 209 217 254 290 306 313 314 311 309 270 245 237 228 288 311 324 324 325 327 322
1 357 37 140 158 170 168 163 159 159 158 158 159 162 168 167 166 166 168 172 172 184 198 212 224 264 290 305 311 314 315 314 279 267 286 305 317 311 317 319 319 320 319
330 353 33 124 154 170 176 170 169 161 160 162 165 165 163 168 170 173 174 174 180 188 199 211 233 275 306 316 316 313 309 303 291 310 310 310 311 318 319 319 318 307 305
330 315 332 95 159 173 181 178 175 178 169 171 169 171 172 175 180 183 188 196 203 208 226 235 244 275 300 304 308 310 313 306 298 300 306 309 314 313 314 313 313 315 314
313 320 311 309 181 186 187 200 201 182 180 183 183 185 186 191 195 201 203 207 218 230 251 252 260 280 300 301 305 309 309 302 297 299 303 307 304 307 311 313 312 310 308
310 310 320 314 284 221 200 202 221 222 218 212 218 212 209 223 221 221 229 243 252 254 251 253 272 288 302 304 307 312 312 304 305 306 310 307 310 311 313 313 311 311 309
312 310 300 304 300 264 234 221 223 230 246 236 244 245 239 231 224 227 224 230 243 273 285 298 293 291 316 296 312 312 310 306 305 312 311 313 313 317 316 312 311 308 307
307 301 299 295 297 290 266 246 248 246 257 266 270 272 268 273 278 298 306 308 307 307 306 309 323 331 346 331 324 318 314 311 309 312 318 322 321 320 318 316 313 312 309
306 296 296 291 285 281 273 254 249 263 271 275 282 293 301 308 309 311 317 319 318 314 309 311 315 322 332 330 335 317 315 316 314 315 321 324 324 321 321 321 321 320 317
294 290 284 285 278 279 268 253 252 253 261 274 285 298 327 329 329 330 332 335 338 321 310 306 308 312 321 323 326 322 316 318 317 320 324 325 328 329 331 331 331 328 325
289 287 279 278 273 273 273 268 261 256 246 250 269 297 315 332 339 343 345 342 341 339 326 309 305 310 314 316 322 329 331 325 324 324 329 335 337 336 335 330 331 334 336
285 283 285 278 266 262 261 264 266 268 273 262 260 293 322 339 345 350 350 357 2 17 13 327 310 319 316 321 330 334 335 330 331 335 342 342 341 339 337 336 341 343 352
276 277 283 284 273 269 263 263 254 260 265 267 272 283 305 333 350 1 359 360 26 37 42 30 319 319 320 333 327 330 327 334 341 345 344 342 343 343 343 343 346 347 348